TimeEDT,TemperatureF,Dew PointF,Humidity,Sea Level PressureIn,VisibilityMPH,Wind Direction,Wind SpeedMPH,Gust SpeedMPH,PrecipitationIn,Events,Conditions,WindDirDegrees,DateUTC
12:56 AM,32.0,32.0,100,30.27,3.0,Calm,Calm,-,N/A,,Clear,0,2012-10-09 04:56:00
1:04 AM,32.0,30.2,93,30.20,1.8,Calm,Calm,-,N/A,,Clear,0,2012-10-09 05:04:00
1:17 AM,32.0,32.0,100,30.21,3.0,Calm,Calm,-,N/A,,Clear,0,2012-10-09 05:17:00
1:31 AM,30.2,30.2,100,30.21,2.0,Calm,Calm,-,N/A,,Clear,0,2012-10-09 05:31:00
1:56 AM,30.0,30.0,100,30.28,0.8,Calm,Calm,-,N/A,,Clear,0,2012-10-09 05:56:00
2:03 AM,30.2,30.2,100,30.21,1.2,Calm,Calm,-,N/A,,Clear,0,2012-10-09 06:03:00
2:05 AM,30.2,30.2,100,30.21,2.0,Calm,Calm,-,N/A,,Clear,0,2012-10-09 06:05:00
2:13 AM,30.2,30.2,100,30.21,3.0,Calm,Calm,-,N/A,,Clear,0,2012-10-09 06:13:00
2:56 AM,30.0,30.0,100,30.28,2.5,Calm,Calm,-,N/A,,Clear,0,2012-10-09 06:56:00
3:37 AM,28.4,28.4,100,30.19,1.2,Calm,Calm,-,N/A,,Clear,0,2012-10-09 07:37:00
3:39 AM,28.4,28.4,100,30.19,0.8,Calm,Calm,-,N/A,,Clear,0,2012-10-09 07:39:00
3:56 AM,29.1,28.0,96,30.26,1.0,Calm,Calm,-,N/A,,Clear,0,2012-10-09 07:56:00
4:00 AM,28.4,28.4,100,30.19,0.5,Calm,Calm,-,N/A,Fog,Light Freezing Fog,0,2012-10-09 08:00:00
4:09 AM,28.4,28.4,100,30.19,0.2,Calm,Calm,-,N/A,Fog,Light Freezing Fog,0,2012-10-09 08:09:00
4:12 AM,28.4,28.4,100,30.19,0.2,Calm,Calm,-,N/A,Fog,Light Freezing Fog,0,2012-10-09 08:12:00
4:56 AM,29.1,28.0,96,30.26,0.2,Calm,Calm,-,N/A,Fog,Light Freezing Fog,0,2012-10-09 08:56:00
5:05 AM,28.4,28.4,100,30.19,0.2,Calm,Calm,-,N/A,Fog,Light Freezing Fog,0,2012-10-09 09:05:00
5:56 AM,28.0,28.0,100,30.27,6.0,Calm,Calm,-,N/A,,Partly Cloudy,0,2012-10-09 09:56:00
6:16 AM,28.4,26.6,93,30.20,1.0,Calm,Calm,-,N/A,,Clear,0,2012-10-09 10:16:00
6:18 AM,28.4,26.6,93,30.20,0.5,Calm,Calm,-,N/A,Fog,Light Freezing Fog,0,2012-10-09 10:18:00
6:28 AM,28.4,28.4,100,30.21,0.2,Calm,Calm,-,N/A,Fog,Light Freezing Fog,0,2012-10-09 10:28:00
6:37 AM,28.4,28.4,100,30.21,0.2,Calm,Calm,-,N/A,Fog,Light Freezing Fog,0,2012-10-09 10:37:00
6:44 AM,28.4,28.4,100,30.21,0.2,Calm,Calm,-,N/A,Fog,Light Freezing Fog,0,2012-10-09 10:44:00
6:56 AM,27.1,27.1,100,30.29,0.2,Calm,Calm,-,N/A,Fog,Light Freezing Fog,0,2012-10-09 10:56:00
7:06 AM,28.4,28.4,100,30.22,1.0,Calm,Calm,-,N/A,,Mist,0,2012-10-09 11:06:00
7:08 AM,28.4,28.4,100,30.22,0.5,Calm,Calm,-,N/A,Fog,Light Freezing Fog,0,2012-10-09 11:08:00
7:14 AM,28.4,28.4,100,30.22,0.2,Calm,Calm,-,N/A,Fog,Light Freezing Fog,0,2012-10-09 11:14:00
7:21 AM,26.6,26.6,100,30.21,0.2,Calm,Calm,-,N/A,Fog,Light Freezing Fog,0,2012-10-09 11:21:00
7:27 AM,26.6,26.6,100,30.21,0.8,Calm,Calm,-,N/A,,Mist,0,2012-10-09 11:27:00
7:29 AM,26.6,26.6,100,30.21,1.8,Calm,Calm,-,N/A,,Mostly Cloudy,0,2012-10-09 11:29:00
7:31 AM,26.6,26.6,100,30.21,4.0,Calm,Calm,-,N/A,,Clear,0,2012-10-09 11:31:00
7:46 AM,28.4,26.6,93,30.22,5.0,Calm,Calm,-,N/A,,Scattered Clouds,0,2012-10-09 11:46:00
7:56 AM,27.1,27.1,100,30.29,5.0,Calm,Calm,-,N/A,,Mostly Cloudy,0,2012-10-09 11:56:00
8:20 AM,30.2,30.2,100,30.21,1.5,Calm,Calm,-,N/A,,Overcast,0,2012-10-09 12:20:00
8:25 AM,30.2,30.2,100,30.21,0.2,Calm,Calm,-,N/A,Fog,Light Freezing Fog,0,2012-10-09 12:25:00
8:33 AM,30.2,30.2,100,30.21,0.2,Calm,Calm,-,N/A,Fog,Light Freezing Fog,0,2012-10-09 12:33:00
8:56 AM,32.0,32.0,100,30.29,0.2,Calm,Calm,-,N/A,Fog,Fog,0,2012-10-09 12:56:00
9:56 AM,34.9,34.9,100,30.30,0.2,Calm,Calm,-,N/A,Fog,Fog,0,2012-10-09 13:56:00
10:37 AM,39.2,39.2,100,30.21,1.0,SSE,3.5,-,N/A,,Mostly Cloudy,160,2012-10-09 14:37:00
10:40 AM,39.2,39.2,100,30.21,1.8,SW,3.5,-,N/A,,Mostly Cloudy,220,2012-10-09 14:40:00
10:42 AM,39.2,39.2,100,30.21,4.0,SW,3.5,-,N/A,,Mostly Cloudy,230,2012-10-09 14:42:00
10:56 AM,39.9,39.9,100,30.28,7.0,Calm,Calm,-,N/A,,Scattered Clouds,0,2012-10-09 14:56:00
11:56 AM,48.9,39.9,71,30.25,10.0,Calm,Calm,-,N/A,,Clear,0,2012-10-09 15:56:00
12:56 PM,52.9,39.9,61,30.22,10.0,Calm,Calm,-,N/A,,Clear,0,2012-10-09 16:56:00
1:56 PM,54.9,38.8,55,30.18,10.0,South,6.9,-,N/A,,Partly Cloudy,170,2012-10-09 17:56:00
2:56 PM,56.8,36.9,47,30.15,10.0,Variable,4.6,-,N/A,,Clear,0,2012-10-09 18:56:00
3:56 PM,59.0,36.0,42,30.13,10.0,SW,8.1,-,N/A,,Clear,230,2012-10-09 19:56:00